This is the latest recevied weather packets stored in our database for station/object SP9TKN-1. If no packets are shown the sender has not sent any weather packets the latest 10 day(s).
| Time | Temp. | Humidity | Pressure | Rain* | Wind** | Luminosity | Snow |
|---|---|---|---|---|---|---|---|
| 1778091377 | 20.56° C | 38% | 1006.2 hPa | - | - | - | - |
| 1778090477 | 21.11° C | 38% | 1006.3 hPa | - | - | - | - |
| 1778089577 | 21.67° C | 38% | 1006.4 hPa | - | - | - | - |
| 1778088677 | 21.67° C | 39% | 1006.2 hPa | - | - | - | - |
| 1778087778 | 22.22° C | 38% | 1006.2 hPa | - | - | - | - |
| 1778086877 | 22.22° C | 37% | 1006.2 hPa | - | - | - | - |
| 1778085977 | 22.22° C | 37% | 1006.3 hPa | - | - | - | - |
| 1778085079 | 22.22° C | 37% | 1006.4 hPa | - | - | - | - |
| 1778084176 | 22.22° C | 37% | 1006.5 hPa | - | - | - | - |
| 1778083276 | 22.22° C | 35% | 1006.6 hPa | - | - | - | - |
| 1778082376 | 22.78° C | 34% | 1006.7 hPa | - | - | - | - |
| 1778081476 | 22.78° C | 33% | 1006.9 hPa | - | - | - | - |
| 1778080576 | 22.78° C | 32% | 1007 hPa | - | - | - | - |
| 1778079676 | 22.78° C | 30% | 1007.1 hPa | - | - | - | - |
| 1778078776 | 23.33° C | 30% | 1007.2 hPa | - | - | - | - |
| 1778077876 | 23.33° C | 30% | 1007.3 hPa | - | - | - | - |
| 1778076976 | 23.89° C | 30% | 1007.4 hPa | - | - | - | - |
| 1778076077 | 23.89° C | 31% | 1007.3 hPa | - | - | - | - |
| 1778075177 | 23.89° C | 31% | 1007.3 hPa | - | - | - | - |
| 1778074276 | 23.33° C | 34% | 1007.5 hPa | - | - | - | - |
| 1778073376 | 23.89° C | 33% | 1007.5 hPa | - | - | - | - |
| 1778072476 | 23.89° C | 34% | 1007.5 hPa | - | - | - | - |
| 1778071576 | 23.89° C | 34% | 1007.6 hPa | - | - | - | - |
| 1778070676 | 24.44° C | 33% | 1007.7 hPa | - | - | - | - |
| 1778069776 | 23.89° C | 34% | 1007.8 hPa | - | - | - | - |
* Rain since midnight (hover to see other rain measurements)
** Current wind speed in m/s (hover to see current wind gust speed)